Location: Newark
(35.2672°N, 80.7344°W)
Time: 20:01:07
(UTC+00:00)

Tiros 1 - Pass Details

Date: 25 January 2020
Orbit: 631 x 664 km, 48.4° (Epoch: 19 February)

Event Time Altitude Azimuth Distance (km) Brightness Sun altitude
Rises 20:53:42 0° 301° (WNW) 2,957 10.8 18.2°
Reaches altitude 10° 20:56:50 10° 323° (NW) 2,054 9.8 17.8°
Maximum altitude 20:59:50 16° 2° (N) 1,675 9.0 17.3°
Drops below altitude 10° 21:02:51 10° 42° (NE) 2,066 9.2 16.8°
Sets 21:06:02 0° 63° (ENE) 2,984 9.9 16.3°
